INTELSAT 10-02

Last updated on Sun Aug 31 2025 00:02:46 GMT+0000 (Coordinated Universal Time)

1 28358U 04022A 25242.02475428 -.00000007 00000+0 00000+0 0 9997 2 28358 0.0455 278.8484 0000835 243.5118 184.0378 1.00272594 77637
UTC large
Height (km)
Speed (km/s)
/
Latitude / Longitude
Inclination (degrees)
Orbital Period (minutes)
Azimuth
Elevation
Range (km)
Doppler Factor

Next 0 passes for location: London (51.5072 / 0.1276)

Sorry there are no passes over London.